Location: Home
(42.5358°N, 72.7383°W)
Time: 13:19:46
(UTC-05:00)

A-11 Canister half - Pass Details

Date: 06 December 2021
Orbit: 1516 x 1684 km, 47.2° (Epoch: 26 January)

Event Time Altitude Azimuth Distance (km) Brightness Sun altitude
Rises 05:19:09 0° 216° (SW) 4,707 11.3 -19.1°
Reaches altitude 10° 05:22:16 10° 212° (SSW) 3,746 10.9 -18.5°
Maximum altitude 05:31:20 51° 140° (SE) 1,940 9.8 -16.9°
Drops below altitude 10° 05:40:45 10° 68° (ENE) 3,887 11.9 -15.3°
Sets 05:44:02 0° 64° (ENE) 4,896 12.4 -14.7°
